| time (UTC) | temp F | wind direction | speed MPH | gust MPH | rain 1hr in | rain 24hr in | rain mn in | humidity % | barometer mb |
| 20260901014632 | 76 | 327 | 0.0 | 1.0 | 0.00 | 0.00 | 0.00 | 74 | 1009.9 |
| 20260901014105 | 76 | 327 | 0.0 | 1.0 | 0.00 | 0.00 | 0.00 | 76 | 1009.7 |
| 20260901013558 | 77 | 327 | 0.0 | 1.0 | 0.00 | 0.00 | 0.00 | 74 | 1009.7 |
| 20260901013050 | 77 | 327 | 0.0 | 0.0 | 0.00 | 0.00 | 0.00 | 74 | 1009.6 |
| 20260901012550 | 77 | 327 | 0.0 | 0.0 | 0.00 | 0.00 | 0.00 | 72 | 1009.6 |
| 20260901012249 | 78 | 327 | 0.0 | 0.0 | 0.00 | 0.00 | 0.00 | 71 | 1009.6 |
| 20260901011524 | 78 | 327 | 0.0 | 0.0 | 0.00 | 0.00 | 0.00 | 70 | 1009.6 |
| 20260901011235 | 79 | 327 | 0.0 | 0.0 | 0.00 | 0.00 | 0.00 | 68 | 1009.5 |
| 20260901010512 | 79 | 327 | 0.0 | 0.0 | 0.00 | 0.00 | 0.00 | 68 | 1009.5 |
| 20260901010012 | 80 | 327 | 0.0 | 0.0 | 0.00 | 0.00 | 0.00 | 67 | 1009.5 |
| 20260901005454 | 80 | 327 | 0.0 | 1.0 | 0.00 | 0.00 | 0.00 | 68 | 1009.5 |
| 20260901004951 | 80 | 327 | 0.0 | 1.0 | 0.00 | 0.00 | 0.00 | 70 | 1009.5 |
| 20260901004446 | 81 | 327 | 0.0 | 1.0 | 0.00 | 0.00 | 0.00 | 67 | 1009.4 |
| 20260901004152 | 81 | 327 | 0.0 | 1.0 | 0.00 | 0.00 | 0.00 | 66 | 1009.4 |
| 20260901003432 | 82 | 327 | 0.0 | 1.0 | 0.00 | 0.00 | 0.00 | 66 | 1009.4 |
| 20260901003151 | 82 | 327 | 0.0 | 1.0 | 0.00 | 0.00 | 0.00 | 64 | 1009.3 |
| 20260901002422 | 83 | 327 | 0.0 | 2.0 | 0.00 | 0.00 | 0.00 | 63 | 1009.3 |
| 20260901001916 | 83 | 315 | 0.0 | 2.0 | 0.00 | 0.00 | 0.00 | 66 | 1009.3 |
| 20260901001410 | 83 | 314 | 0.0 | 2.0 | 0.00 | 0.00 | 0.00 | 60 | 1009.3 |
| 20260901000854 | 84 | 314 | 0.0 | 2.0 | 0.00 | 0.00 | 0.00 | 60 | 1009.3 |
| 20260901000343 | 84 | 315 | 0.0 | 0.0 | 0.00 | 0.00 | 0.00 | 59 | 1009.3 |
| 20260831235835 | 84 | 315 | 0.0 | 0.0 | 0.00 | 0.00 | 0.00 | 57 | 1009.2 |
| 20260831235555 | 85 | 315 | 0.0 | 1.0 | 0.00 | 0.00 | 0.00 | 57 | 1009.3 |
| 20260831234822 | 85 | 315 | 0.0 | 2.0 | 0.00 | 0.00 | 0.00 | 60 | 1009.2 |
| 20260831234538 | 85 | 315 | 1.0 | 2.0 | 0.00 | 0.00 | 0.00 | 58 | 1009.2 |
| 20260831233812 | 86 | 315 | 1.0 | 2.0 | 0.00 | 0.00 | 0.00 | 59 | 1009.2 |
| 20260831233310 | 86 | 313 | 1.0 | 3.0 | 0.00 | 0.00 | 0.00 | 57 | 1009.1 |
| 20260831232809 | 86 | 325 | 1.0 | 3.0 | 0.00 | 0.00 | 0.00 | 57 | 1009.3 |
| 20260831232310 | 87 | 325 | 1.0 | 2.0 | 0.00 | 0.00 | 0.00 | 58 | 1009.3 |
| 20260831231809 | 87 | 326 | 1.0 | 2.0 | 0.00 | 0.00 | 0.00 | 57 | 1009.2 |
| 20260831231307 | 87 | 323 | 1.0 | 3.0 | 0.00 | 0.00 | 0.00 | 54 | 1009.3 |
| 20260831230805 | 87 | 302 | 1.0 | 3.0 | 0.00 | 0.00 | 0.00 | 53 | 1009.2 |
| 20260831230530 | 88 | 304 | 0.0 | 3.0 | 0.00 | 0.00 | 0.00 | 54 | 1009.1 |
| 20260831225803 | 88 | 286 | 1.0 | 5.0 | 0.00 | 0.00 | 0.00 | 47 | 1009.2 |
| 20260831225306 | 88 | 303 | 1.0 | 5.0 | 0.00 | 0.00 | 0.00 | 48 | 1009.1 |
| 20260831225024 | 89 | 311 | 1.0 | 5.0 | 0.00 | 0.00 | 0.00 | 46 | 1009.1 |
| 20260831224256 | 89 | 300 | 1.0 | 6.0 | 0.00 | 0.00 | 0.00 | 46 | 1009.1 |
| 20260831223758 | 89 | 351 | 1.0 | 6.0 | 0.00 | 0.00 | 0.00 | 47 | 1009.1 |
| 20260831223244 | 89 | 335 | 1.0 | 6.0 | 0.00 | 0.00 | 0.00 | 44 | 1009.1 |
| 20260831223009 | 90 | 0 | 1.0 | 5.0 | 0.00 | 0.00 | 0.00 | 46 | 1009.1 |
| 20260831222243 | 91 | 292 | 2.0 | 9.0 | 0.00 | 0.00 | 0.00 | 44 | 1009.1 |
| 20260831221736 | 92 | 288 | 2.0 | 9.0 | 0.00 | 0.00 | 0.00 | 43 | 1009.1 |
| 20260831221237 | 92 | 306 | 1.0 | 8.0 | 0.00 | 0.00 | 0.00 | 44 | 1009.0 |
| 20260831220953 | 92 | 294 | 1.0 | 8.0 | 0.00 | 0.00 | 0.00 | 44 | 1008.8 |
| 20260831220458 | 92 | 314 | 2.0 | 8.0 | 0.00 | 0.00 | 0.00 | 43 | 1008.8 |
| 20260831220214 | 92 | 349 | 2.0 | 8.0 | 0.00 | 0.00 | 0.00 | 46 | 1008.9 |
| 20260831215229 | 92 | 342 | 1.0 | 9.0 | 0.00 | 0.00 | 0.00 | 48 | 1008.8 |
| 20260831214725 | 91 | 318 | 1.0 | 9.0 | 0.00 | 0.00 | 0.00 | 47 | 1008.9 |
| 20260831214705 | 91 | 328 | 2.0 | 9.0 | 0.00 | 0.00 | 0.00 | 46 | 1008.8 |
| 20260831213709 | 91 | 349 | 2.0 | 9.0 | 0.00 | 0.00 | 0.00 | 46 | 1008.8 |
| 20260831213212 | 92 | 340 | 2.0 | 6.0 | 0.00 | 0.00 | 0.00 | 44 | 1008.7 |
| 20260831212647 | 92 | 327 | 2.0 | 5.0 | 0.00 | 0.00 | 0.00 | 47 | 1008.7 |
| 20260831212409 | 92 | 309 | 1.0 | 3.0 | 0.00 | 0.00 | 0.00 | 46 | 1008.7 |
| 20260831211647 | 91 | 19 | 0.0 | 3.0 | 0.00 | 0.00 | 0.00 | 47 | 1008.7 |
| 20260831211139 | 91 | 306 | 1.0 | 8.0 | 0.00 | 0.00 | 0.00 | 48 | 1008.6 |
| 20260831210636 | 91 | 331 | 2.0 | 8.0 | 0.00 | 0.00 | 0.00 | 51 | 1008.7 |
| 20260831210624 | 91 | 320 | 2.0 | 8.0 | 0.00 | 0.00 | 0.00 | 50 | 1008.7 |
| 20260831205604 | 91 | 329 | 2.0 | 8.0 | 0.00 | 0.00 | 0.00 | 46 | 1008.7 |
| 20260831205106 | 91 | 22 | 2.0 | 5.0 | 0.00 | 0.00 | 0.00 | 49 | 1008.7 |
| 20260831204604 | 91 | 325 | 2.0 | 9.0 | 0.00 | 0.00 | 0.00 | 51 | 1008.8 |
| 20260831204100 | 91 | 333 | 2.0 | 9.0 | 0.00 | 0.00 | 0.00 | 46 | 1008.8 |
| 20260831203818 | 92 | 331 | 1.0 | 7.0 | 0.00 | 0.00 | 0.00 | 48 | 1008.8 |
| 20260831203313 | 91 | 257 | 2.0 | 5.0 | 0.00 | 0.00 | 0.00 | 48 | 1008.8 |
| 20260831202553 | 91 | 344 | 2.0 | 5.0 | 0.00 | 0.00 | 0.00 | 44 | 1008.7 |
| 20260831202050 | 92 | 244 | 2.0 | 8.0 | 0.00 | 0.00 | 0.00 | 44 | 1008.8 |
| 20260831201548 | 91 | 333 | 2.0 | 8.0 | 0.00 | 0.00 | 0.00 | 47 | 1008.6 |
| 20260831201045 | 91 | 313 | 2.0 | 9.0 | 0.00 | 0.00 | 0.00 | 46 | 1008.7 |
| 20260831200545 | 91 | 323 | 3.0 | 9.0 | 0.00 | 0.00 | 0.00 | 48 | 1008.6 |
| 20260831200040 | 91 | 0 | 2.0 | 7.0 | 0.00 | 0.00 | 0.00 | 46 | 1008.6 |
| 20260831195805 | 90 | 336 | 2.0 | 9.0 | 0.00 | 0.00 | 0.00 | 46 | 1008.5 |
| 20260831195036 | 91 | 268 | 2.0 | 9.0 | 0.00 | 0.00 | 0.00 | 50 | 1008.5 |
| 20260831194534 | 90 | 301 | 1.0 | 5.0 | 0.00 | 0.00 | 0.00 | 50 | 1008.5 |
| 20260831194307 | 90 | 169 | 2.0 | 6.0 | 0.00 | 0.00 | 0.00 | 47 | 1008.4 |
| 20260831193536 | 90 | 18 | 1.0 | 6.0 | 0.00 | 0.00 | 0.00 | 51 | 1008.4 |
| 20260831193028 | 89 | 326 | 2.0 | 6.0 | 0.00 | 0.00 | 0.00 | 54 | 1008.5 |
| 20260831192751 | 89 | 336 | 2.0 | 8.0 | 0.00 | 0.00 | 0.00 | 53 | 1008.5 |
| 20260831192024 | 89 | 327 | 2.0 | 8.0 | 0.00 | 0.00 | 0.00 | 55 | 1008.6 |
| 20260831191521 | 89 | 248 | 2.0 | 5.0 | 0.00 | 0.00 | 0.00 | 55 | 1008.6 |
| 20260831191017 | 89 | 273 | 2.0 | 10.0 | 0.00 | 0.00 | 0.00 | 58 | 1008.6 |
| 20260831190515 | 89 | 286 | 2.0 | 10.0 | 0.00 | 0.00 | 0.00 | 61 | 1008.7 |
| 20260831190015 | 89 | 307 | 1.0 | 4.0 | 0.00 | 0.00 | 0.00 | 57 | 1008.6 |
| 20260831185514 | 88 | 252 | 2.0 | 8.0 | 0.00 | 0.00 | 0.00 | 60 | 1008.5 |
| 20260831185015 | 88 | 299 | 3.0 | 9.0 | 0.00 | 0.00 | 0.00 | 63 | 1008.5 |
| 20260831184515 | 88 | 31 | 2.0 | 9.0 | 0.00 | 0.00 | 0.00 | 61 | 1008.5 |
| 20260831184015 | 87 | 325 | 2.0 | 6.0 | 0.00 | 0.00 | 0.00 | 67 | 1008.5 |
| 20260831183512 | 87 | 317 | 2.0 | 6.0 | 0.00 | 0.00 | 0.00 | 66 | 1008.5 |
| 20260831183012 | 86 | 337 | 1.0 | 6.0 | 0.00 | 0.00 | 0.00 | 70 | 1008.5 |
| 20260831182513 | 86 | 246 | 1.0 | 6.0 | 0.00 | 0.00 | 0.00 | 68 | 1008.5 |
| 20260831182013 | 85 | 259 | 2.0 | 7.0 | 0.00 | 0.00 | 0.00 | 69 | 1008.5 |
| 20260831181510 | 85 | 270 | 2.0 | 7.0 | 0.00 | 0.00 | 0.00 | 74 | 1008.6 |
| 20260831180959 | 84 | 212 | 2.0 | 6.0 | 0.00 | 0.00 | 0.00 | 72 | 1008.6 |
| 20260831180458 | 84 | 333 | 2.0 | 6.0 | 0.00 | 0.00 | 0.00 | 72 | 1008.7 |
| 20260831175953 | 83 | 346 | 2.0 | 6.0 | 0.00 | 0.00 | 0.00 | 77 | 1008.7 |
| 20260831175717 | 83 | 311 | 2.0 | 6.0 | 0.00 | 0.00 | 0.00 | 77 | 1008.7 |
| 20260831174942 | 82 | 300 | 2.0 | 4.0 | 0.00 | 0.00 | 0.00 | 78 | 1008.7 |
| 20260831174441 | 81 | 334 | 2.0 | 4.0 | 0.00 | 0.00 | 0.00 | 78 | 1008.8 |
| 20260831173937 | 81 | 315 | 1.0 | 4.0 | 0.00 | 0.00 | 0.00 | 81 | 1008.8 |
| 20260831173438 | 80 | 331 | 1.0 | 6.0 | 0.00 | 0.00 | 0.00 | 81 | 1008.9 |
| 20260831172935 | 79 | 330 | 1.0 | 6.0 | 0.00 | 0.00 | 0.00 | 84 | 1008.9 |
| 20260831172431 | 79 | 313 | 2.0 | 6.0 | 0.00 | 0.00 | 0.00 | 84 | 1008.9 |
| 20260831171928 | 78 | 317 | 2.0 | 6.0 | 0.00 | 0.00 | 0.00 | 86 | 1008.9 |
| 20260831171426 | 78 | 325 | 2.0 | 6.0 | 0.00 | 0.00 | 0.00 | 85 | 1009.0 |
| 20260831170928 | 78 | 330 | 2.0 | 6.0 | 0.00 | 0.00 | 0.00 | 86 | 1008.9 |
| 20260831170423 | 78 | 344 | 2.0 | 6.0 | 0.00 | 0.00 | 0.00 | 86 | 1009.0 |
| 20260831165917 | 78 | 295 | 1.0 | 6.0 | 0.00 | 0.00 | 0.00 | 86 | 1008.9 |
| 20260831165418 | 78 | 340 | 2.0 | 6.0 | 0.00 | 0.00 | 0.00 | 87 | 1009.0 |
| 20260831164912 | 78 | 19 | 3.0 | 6.0 | 0.00 | 0.00 | 0.00 | 87 | 1009.0 |
| 20260831164514 | 77 | 349 | 2.0 | 5.0 | 0.00 | 0.00 | 0.00 | 88 | 1009.0 |
| 20260831163400 | 77 | 317 | 1.0 | 4.0 | 0.00 | 0.00 | 0.00 | 88 | 1008.9 |
| 20260831162901 | 77 | 329 | 2.0 | 6.0 | 0.00 | 0.00 | 0.00 | 89 | 1009.0 |
| 20260831162625 | 77 | 329 | 2.0 | 6.0 | 0.00 | 0.00 | 0.00 | 90 | 1008.9 |
| 20260831162110 | 77 | 330 | 3.0 | 8.0 | 0.00 | 0.00 | 0.00 | 91 | 1008.9 |
| 20260831161345 | 77 | 332 | 3.0 | 8.0 | 0.00 | 0.00 | 0.00 | 92 | 1009.0 |
| 20260831160845 | 77 | 31 | 3.0 | 9.0 | 0.00 | 0.00 | 0.00 | 92 | 1008.8 |
| 20260831160335 | 77 | 0 | 3.0 | 10.0 | 0.00 | 0.00 | 0.00 | 93 | 1008.9 |
| 20260831155829 | 77 | 307 | 3.0 | 10.0 | 0.00 | 0.00 | 0.00 | 94 | 1008.8 |
| 20260831155329 | 77 | 341 | 3.0 | 10.0 | 0.00 | 0.00 | 0.00 | 94 | 1008.7 |
| 20260831154826 | 77 | 311 | 3.0 | 10.0 | 0.00 | 0.00 | 0.00 | 95 | 1008.6 |
| 20260831154549 | 76 | 9 | 2.0 | 8.0 | 0.00 | 0.00 | 0.00 | 95 | 1008.5 |
| 20260831153813 | 76 | 34 | 3.0 | 8.0 | 0.00 | 0.00 | 0.00 | 95 | 1008.3 |
| 20260831153316 | 76 | 329 | 3.0 | 8.0 | 0.00 | 0.00 | 0.00 | 95 | 1008.2 |
| 20260831152812 | 76 | 340 | 4.0 | 8.0 | 0.00 | 0.00 | 0.00 | 95 | 1008.3 |
| 20260831152308 | 76 | 342 | 4.0 | 11.0 | 0.00 | 0.00 | 0.00 | 95 | 1008.2 |
| 20260831151805 | 76 | 273 | 3.0 | 11.0 | 0.00 | 0.00 | 0.00 | 95 | 1008.2 |
| 20260831151303 | 76 | 336 | 3.0 | 8.0 | 0.00 | 0.00 | 0.00 | 96 | 1008.0 |
| 20260831151258 | 76 | 265 | 2.0 | 8.0 | 0.00 | 0.00 | 0.00 | 96 | 1008.0 |
| 20260831150306 | 76 | 317 | 1.0 | 8.0 | 0.00 | 0.00 | 0.00 | 96 | 1008.0 |
| 20260831145803 | 76 | 318 | 1.0 | 4.0 | 0.00 | 0.00 | 0.00 | 96 | 1007.8 |
| 20260831145306 | 75 | 313 | 2.0 | 5.0 | 0.00 | 0.00 | 0.00 | 96 | 1007.7 |
| 20260831145020 | 75 | 318 | 2.0 | 6.0 | 0.00 | 0.00 | 0.00 | 96 | 1007.6 |
| 20260831144256 | 75 | 306 | 1.0 | 6.0 | 0.00 | 0.00 | 0.00 | 96 | 1007.4 |
| 20260831143753 | 75 | 5 | 1.0 | 8.0 | 0.00 | 0.00 | 0.00 | 96 | 1007.4 |
| 20260831143250 | 75 | 323 | 1.0 | 8.0 | 0.00 | 0.00 | 0.00 | 96 | 1007.4 |
| 20260831142749 | 75 | 211 | 2.0 | 5.0 | 0.00 | 0.00 | 0.00 | 96 | 1007.4 |
| 20260831142248 | 75 | 319 | 2.0 | 6.0 | 0.00 | 0.00 | 0.00 | 96 | 1007.3 |
| 20260831141747 | 75 | 322 | 2.0 | 6.0 | 0.00 | 0.00 | 0.00 | 96 | 1007.2 |
| 20260831141246 | 75 | 315 | 1.0 | 7.0 | 0.00 | 0.00 | 0.00 | 96 | 1007.0 |
| 20260831140738 | 75 | 277 | 1.0 | 7.0 | 0.00 | 0.00 | 0.00 | 97 | 1007.0 |
| 20260831140237 | 74 | 227 | 1.0 | 6.0 | 0.00 | 0.00 | 0.00 | 96 | 1007.0 |
| 20260831135737 | 74 | 235 | 2.0 | 8.0 | 0.00 | 0.00 | 0.00 | 96 | 1007.0 |
| 20260831135226 | 74 | 273 | 2.0 | 8.0 | 0.00 | 0.00 | 0.00 | 97 | 1006.9 |
| 20260831134724 | 74 | 213 | 2.0 | 8.0 | 0.00 | 0.00 | 0.00 | 96 | 1006.8 |
| 20260831134223 | 73 | 220 | 2.0 | 8.0 | 0.00 | 0.00 | 0.00 | 96 | 1006.7 |
| 20260831133725 | 73 | 246 | 2.0 | 8.0 | 0.00 | 0.00 | 0.00 | 96 | 1006.6 |
| 20260831133225 | 73 | 256 | 2.0 | 5.0 | 0.00 | 0.00 | 0.00 | 97 | 1006.6 |
| 20260831132720 | 73 | 269 | 3.0 | 7.0 | 0.00 | 0.00 | 0.00 | 96 | 1006.7 |
| 20260831132219 | 73 | 259 | 3.0 | 7.0 | 0.00 | 0.00 | 0.00 | 96 | 1006.6 |
| 20260831131720 | 73 | 222 | 1.0 | 4.0 | 0.00 | 0.00 | 0.00 | 97 | 1006.6 |
| 20260831131420 | 72 | 232 | 2.0 | 4.0 | 0.00 | 0.00 | 0.00 | 96 | 1006.6 |
| 20260831131129 | 72 | 185 | 2.0 | 4.0 | 0.00 | 0.00 | 0.00 | 97 | 1006.6 |
| 20260831130147 | 72 | 184 | 1.0 | 4.0 | 0.00 | 0.00 | 0.00 | 96 | 1006.5 |
| 20260831125907 | 71 | 177 | 1.0 | 4.0 | 0.00 | 0.00 | 0.00 | 97 | 1006.5 |
| 20260831125134 | 71 | 163 | 1.0 | 4.0 | 0.00 | 0.00 | 0.00 | 96 | 1006.4 |
| 20260831124854 | 70 | 148 | 1.0 | 4.0 | 0.00 | 0.00 | 0.00 | 96 | 1006.4 |
| 20260831124102 | 70 | 144 | 1.0 | 3.0 | 0.00 | 0.00 | 0.00 | 96 | 1006.4 |
| 20260831123555 | 70 | 144 | 0.0 | 3.0 | 0.00 | 0.00 | 0.00 | 96 | 1006.3 |
| 20260831123057 | 69 | 144 | 0.0 | 2.0 | 0.00 | 0.00 | 0.00 | 96 | 1006.3 |
| 20260831122559 | 69 | 144 | 0.0 | 2.0 | 0.00 | 0.00 | 0.00 | 96 | 1006.2 |
| 20260831122311 | 69 | 144 | 0.0 | 2.0 | 0.00 | 0.00 | 0.00 | 96 | 1006.0 |
| 20260831121538 | 69 | 144 | 0.0 | 1.0 | 0.00 | 0.00 | 0.00 | 96 | 1005.9 |
| 20260831121302 | 69 | 144 | 0.0 | 1.0 | 0.00 | 0.00 | 0.00 | 96 | 1005.7 |
| 20260831120535 | 69 | 144 | 0.0 | 1.0 | 0.00 | 0.00 | 0.00 | 96 | 1005.7 |
| 20260831120033 | 69 | 144 | 0.0 | 1.0 | 0.00 | 0.00 | 0.00 | 96 | 1005.7 |
| 20260831115535 | 69 | 144 | 0.0 | 0.0 | 0.00 | 0.00 | 0.00 | 96 | 1005.6 |
| 20260831115514 | 69 | 144 | 0.0 | 0.0 | 0.00 | 0.00 | 0.00 | 96 | 1005.6 |
| 20260831114523 | 69 | 144 | 0.0 | 0.0 | 0.00 | 0.00 | 0.00 | 96 | 1005.7 |
| 20260831114007 | 69 | 144 | 0.0 | 0.0 | 0.00 | 0.00 | 0.00 | 96 | 1005.6 |
| 20260831113506 | 69 | 144 | 0.0 | 0.0 | 0.00 | 0.00 | 0.00 | 95 | 1005.6 |
| 20260831112939 | 69 | 144 | 0.0 | 0.0 | 0.00 | 0.00 | 0.00 | 95 | 1005.4 |
| 20260831112650 | 69 | 144 | 0.0 | 0.0 | 0.00 | 0.00 | 0.00 | 95 | 1005.4 |
| 20260831111916 | 69 | 144 | 0.0 | 0.0 | 0.00 | 0.00 | 0.00 | 95 | 1005.4 |
| 20260831111409 | 70 | 144 | 0.0 | 0.0 | 0.00 | 0.00 | 0.00 | 96 | 1005.3 |
| 20260831110910 | 70 | 144 | 0.0 | 0.0 | 0.00 | 0.00 | 0.00 | 96 | 1005.4 |
| 20260831110409 | 70 | 144 | 0.0 | 0.0 | 0.00 | 0.00 | 0.00 | 96 | 1005.3 |
| 20260831105858 | 70 | 144 | 0.0 | 1.0 | 0.00 | 0.00 | 0.00 | 96 | 1005.3 |
| 20260831105356 | 70 | 144 | 0.0 | 1.0 | 0.00 | 0.00 | 0.00 | 96 | 1005.2 |
| 20260831104857 | 70 | 144 | 0.0 | 2.0 | 0.00 | 0.00 | 0.00 | 96 | 1005.5 |
| 20260831104353 | 70 | 144 | 0.0 | 2.0 | 0.00 | 0.00 | 0.00 | 96 | 1005.5 |
| 20260831103853 | 70 | 143 | 0.0 | 1.0 | 0.00 | 0.00 | 0.00 | 95 | 1005.3 |
| 20260831103347 | 70 | 143 | 0.0 | 1.0 | 0.00 | 0.00 | 0.00 | 95 | 1005.3 |
| 20260831102844 | 70 | 143 | 0.0 | 1.0 | 0.00 | 0.00 | 0.00 | 95 | 1005.2 |
| 20260831102341 | 70 | 143 | 0.0 | 1.0 | 0.00 | 0.00 | 0.00 | 95 | 1005.2 |
| 20260831101821 | 70 | 143 | 0.0 | 1.0 | 0.00 | 0.00 | 0.00 | 95 | 1005.2 |
| 20260831101237 | 70 | 143 | 0.0 | 1.0 | 0.00 | 0.00 | 0.00 | 95 | 1005.1 |
| 20260831101003 | 70 | 143 | 0.0 | 2.0 | 0.00 | 0.00 | 0.00 | 95 | 1005.1 |
| 20260831100214 | 70 | 143 | 1.0 | 2.0 | 0.00 | 0.00 | 0.00 | 95 | 1005.0 |
| 20260831095651 | 70 | 143 | 0.0 | 2.0 | 0.00 | 0.00 | 0.00 | 95 | 1005.0 |
| 20260831095141 | 70 | 143 | 0.0 | 1.0 | 0.00 | 0.00 | 0.00 | 95 | 1004.8 |
| 20260831094643 | 70 | 143 | 0.0 | 1.0 | 0.00 | 0.00 | 0.00 | 95 | 1004.9 |
| 20260831094137 | 70 | 143 | 0.0 | 1.0 | 0.00 | 0.00 | 0.00 | 95 | 1004.9 |
| 20260831093859 | 70 | 143 | 0.0 | 0.0 | 0.00 | 0.00 | 0.00 | 95 | 1004.8 |
| 20260831093129 | 70 | 143 | 0.0 | 0.0 | 0.00 | 0.00 | 0.00 | 95 | 1004.9 |
| 20260831092615 | 70 | 143 | 0.0 | 1.0 | 0.00 | 0.00 | 0.00 | 95 | 1004.9 |
| 20260831092109 | 70 | 143 | 0.0 | 1.0 | 0.00 | 0.00 | 0.00 | 96 | 1004.9 |
| 20260831091600 | 70 | 144 | 0.0 | 1.0 | 0.00 | 0.00 | 0.00 | 95 | 1005.0 |
| 20260831091103 | 70 | 145 | 0.0 | 1.0 | 0.00 | 0.00 | 0.00 | 95 | 1005.2 |
| 20260831090557 | 70 | 159 | 0.0 | 1.0 | 0.00 | 0.00 | 0.00 | 95 | 1005.2 |
| 20260831090318 | 70 | 157 | 0.0 | 2.0 | 0.00 | 0.00 | 0.00 | 95 | 1005.2 |
| 20260831085751 | 69 | 157 | 0.0 | 2.0 | 0.00 | 0.00 | 0.00 | 95 | 1005.1 |
| 20260831085027 | 69 | 157 | 0.0 | 2.0 | 0.00 | 0.00 | 0.00 | 95 | 1004.9 |
| 20260831084518 | 69 | 157 | 0.0 | 2.0 | 0.00 | 0.00 | 0.00 | 95 | 1004.9 |
| 20260831084236 | 69 | 157 | 0.0 | 2.0 | 0.00 | 0.00 | 0.00 | 94 | 1004.8 |
| 20260831083735 | 69 | 157 | 1.0 | 2.0 | 0.00 | 0.00 | 0.00 | 93 | 1004.9 |
| 20260831083009 | 69 | 157 | 1.0 | 2.0 | 0.00 | 0.00 | 0.00 | 93 | 1004.9 |
| 20260831082455 | 69 | 157 | 0.0 | 1.0 | 0.00 | 0.00 | 0.00 | 92 | 1004.9 |
| 20260831081950 | 70 | 157 | 0.0 | 3.0 | 0.00 | 0.00 | 0.00 | 90 | 1004.8 |
| 20260831081439 | 72 | 157 | 0.0 | 3.0 | 0.00 | 0.00 | 0.00 | 90 | 1004.7 |
| 20260831080925 | 73 | 157 | 1.0 | 3.0 | 0.00 | 0.00 | 0.00 | 91 | 1004.7 |
| 20260831080420 | 73 | 157 | 1.0 | 3.0 | 0.00 | 0.00 | 0.00 | 91 | 1004.7 |
| 20260831080132 | 73 | 157 | 0.0 | 3.0 | 0.00 | 0.00 | 0.00 | 91 | 1004.7 |
| 20260831075633 | 73 | 157 | 0.0 | 3.0 | 0.00 | 0.00 | 0.00 | 90 | 1004.6 |
| 20260831074900 | 73 | 157 | 1.0 | 5.0 | 0.00 | 0.00 | 0.00 | 90 | 1004.8 |
| 20260831074402 | 73 | 158 | 1.0 | 5.0 | 0.00 | 0.00 | 0.00 | 90 | 1004.8 |
| 20260831073858 | 73 | 159 | 0.0 | 2.0 | 0.00 | 0.00 | 0.00 | 90 | 1004.7 |
| 20260831073608 | 73 | 159 | 1.0 | 4.0 | 0.00 | 0.00 | 0.00 | 90 | 1004.7 |
| 20260831072832 | 73 | 159 | 1.0 | 5.0 | 0.00 | 0.00 | 0.00 | 90 | 1004.9 |
| 20260831072555 | 73 | 159 | 0.0 | 5.0 | 0.00 | 0.00 | 0.00 | 90 | 1004.9 |
| 20260831071828 | 73 | 159 | 1.0 | 4.0 | 0.00 | 0.00 | 0.00 | 89 | 1005.0 |
| 20260831071323 | 73 | 159 | 0.0 | 5.0 | 0.00 | 0.00 | 0.00 | 90 | 1005.0 |
| 20260831071049 | 73 | 159 | 1.0 | 5.0 | 0.00 | 0.00 | 0.00 | 90 | 1005.1 |
| 20260831070313 | 73 | 159 | 0.0 | 5.0 | 0.00 | 0.00 | 0.00 | 89 | 1005.1 |
| 20260831065812 | 74 | 160 | 0.0 | 1.0 | 0.00 | 0.00 | 0.00 | 89 | 1005.0 |
| 20260831065310 | 74 | 160 | 0.0 | 1.0 | 0.00 | 0.00 | 0.00 | 89 | 1005.1 |
| 20260831065003 | 74 | 160 | 0.0 | 3.0 | 0.00 | 0.00 | 0.00 | 89 | 1005.1 |
| 20260831064237 | 74 | 160 | 0.0 | 3.0 | 0.00 | 0.00 | 0.00 | 89 | 1005.3 |
| 20260831063959 | 74 | 160 | 0.0 | 4.0 | 0.00 | 0.00 | 0.00 | 89 | 1005.2 |
| 20260831063213 | 74 | 160 | 0.0 | 4.0 | 0.00 | 0.00 | 0.00 | 89 | 1005.4 |
| 20260831062913 | 74 | 160 | 0.0 | 5.0 | 0.00 | 0.00 | 0.00 | 89 | 1005.5 |
| 20260831062132 | 74 | 161 | 0.0 | 5.0 | 0.00 | 0.00 | 0.00 | 89 | 1005.6 |
| 20260831061833 | 74 | 159 | 1.0 | 4.0 | 0.00 | 0.00 | 0.00 | 89 | 1005.5 |
| 20260831061105 | 74 | 159 | 1.0 | 4.0 | 0.00 | 0.00 | 0.00 | 89 | 1005.7 |
| 20260831060603 | 74 | 159 | 1.0 | 4.0 | 0.00 | 0.00 | 0.00 | 88 | 1005.5 |
| 20260831060056 | 74 | 158 | 0.0 | 3.0 | 0.00 | 0.00 | 0.00 | 88 | 1005.5 |
| 20260831055811 | 74 | 158 | 0.0 | 5.0 | 0.00 | 0.00 | 0.00 | 88 | 1005.5 |
| 20260831055054 | 74 | 158 | 1.0 | 5.0 | 0.00 | 0.00 | 0.00 | 88 | 1005.5 |
| 20260831054536 | 74 | 157 | 0.0 | 5.0 | 0.00 | 0.00 | 0.00 | 88 | 1005.5 |
| 20260831054031 | 74 | 148 | 0.0 | 2.0 | 0.00 | 0.00 | 0.00 | 88 | 1005.6 |
| 20260831053535 | 74 | 148 | 0.0 | 1.0 | 0.00 | 0.00 | 0.00 | 88 | 1005.7 |
| 20260831053244 | 74 | 148 | 0.0 | 1.0 | 0.00 | 0.00 | 0.00 | 88 | 1005.7 |
| 20260831052525 | 74 | 148 | 0.0 | 1.0 | 0.00 | 0.00 | 0.00 | 88 | 1005.8 |
| 20260831052013 | 74 | 148 | 0.0 | 0.0 | 0.00 | 0.00 | 0.00 | 87 | 1006.0 |
| 20260831051509 | 75 | 148 | 0.0 | 2.0 | 0.00 | 0.00 | 0.00 | 87 | 1006.0 |
| 20260831051011 | 75 | 148 | 0.0 | 5.0 | 0.00 | 0.00 | 0.00 | 87 | 1006.0 |
| 20260831050507 | 75 | 148 | 0.0 | 5.0 | 0.00 | 0.00 | 0.00 | 87 | 1006.1 |
| 20260831050008 | 75 | 148 | 0.0 | 2.0 | 0.00 | 0.00 | 0.00 | 87 | 1006.2 |
| 20260831045508 | 75 | 148 | 0.0 | 3.0 | 0.00 | 0.00 | 0.00 | 87 | 1006.2 |
| 20260831045005 | 75 | 148 | 1.0 | 6.0 | 0.00 | 0.00 | 0.00 | 87 | 1006.3 |
| 20260831044500 | 75 | 148 | 1.0 | 6.0 | 0.00 | 0.00 | 0.00 | 86 | 1006.4 |
| 20260831043956 | 75 | 147 | 2.0 | 6.0 | 0.00 | 0.00 | 0.00 | 86 | 1006.5 |
| 20260831043458 | 76 | 160 | 1.0 | 6.0 | 0.00 | 0.00 | 0.00 | 86 | 1006.5 |
| 20260831042951 | 75 | 150 | 1.0 | 7.0 | 0.00 | 0.00 | 0.00 | 86 | 1006.6 |
| 20260831042445 | 76 | 145 | 1.0 | 7.0 | 0.00 | 0.00 | 0.00 | 86 | 1006.4 |
| 20260831041941 | 76 | 119 | 0.0 | 2.0 | 0.00 | 0.00 | 0.00 | 86 | 1006.4 |
| 20260831041440 | 76 | 153 | 1.0 | 4.0 | 0.00 | 0.00 | 0.00 | 85 | 1006.4 |
| 20260831040932 | 76 | 155 | 1.0 | 6.0 | 0.00 | 0.00 | 0.00 | 85 | 1006.4 |
| 20260831040430 | 76 | 143 | 1.0 | 6.0 | 0.00 | 0.00 | 0.00 | 85 | 1006.5 |
| 20260831035920 | 76 | 157 | 2.0 | 7.0 | 0.00 | 0.00 | 0.00 | 85 | 1006.4 |
| 20260831035414 | 76 | 157 | 2.0 | 7.0 | 0.00 | 0.00 | 0.00 | 85 | 1006.3 |
| 20260831034914 | 77 | 146 | 1.0 | 7.0 | 0.00 | 0.00 | 0.00 | 84 | 1006.3 |
| 20260831034406 | 77 | 155 | 2.0 | 7.0 | 0.00 | 0.00 | 0.00 | 84 | 1006.2 |
| 20260831033908 | 77 | 146 | 2.0 | 8.0 | 0.00 | 0.00 | 0.00 | 84 | 1006.3 |
| 20260831033408 | 77 | 155 | 4.0 | 10.0 | 0.00 | 0.00 | 0.00 | 83 | 1006.3 |
| 20260831032858 | 77 | 125 | 5.0 | 10.0 | 0.00 | 0.00 | 0.00 | 83 | 1006.3 |
| 20260831032400 | 77 | 155 | 3.0 | 9.0 | 0.00 | 0.00 | 0.00 | 83 | 1006.4 |
| 20260831031858 | 78 | 162 | 3.0 | 9.0 | 0.00 | 0.00 | 0.00 | 83 | 1006.3 |
| 20260831031358 | 78 | 155 | 3.0 | 9.0 | 0.00 | 0.00 | 0.00 | 83 | 1006.3 |
| 20260831030900 | 78 | 134 | 3.0 | 10.0 | 0.00 | 0.00 | 0.00 | 82 | 1006.2 |
| 20260831030352 | 78 | 153 | 4.0 | 10.0 | 0.00 | 0.00 | 0.00 | 82 | 1006.2 |
| 20260831025853 | 78 | 149 | 3.0 | 10.0 | 0.00 | 0.00 | 0.00 | 82 | 1006.1 |
| 20260831025352 | 78 | 158 | 2.0 | 8.0 | 0.00 | 0.00 | 0.00 | 81 | 1006.1 |
| 20260831024852 | 78 | 155 | 2.0 | 8.0 | 0.00 | 0.00 | 0.00 | 81 | 1006.0 |
| 20260831024342 | 79 | 144 | 2.0 | 9.0 | 0.00 | 0.00 | 0.00 | 81 | 1006.0 |
| 20260831023836 | 79 | 171 | 3.0 | 11.0 | 0.00 | 0.00 | 0.00 | 80 | 1006.1 |
| 20260831023334 | 79 | 148 | 4.0 | 11.0 | 0.00 | 0.00 | 0.00 | 80 | 1006.1 |
| 20260831022831 | 79 | 160 | 4.0 | 11.0 | 0.00 | 0.00 | 0.00 | 80 | 1006.1 |
| 20260831022328 | 79 | 154 | 5.0 | 13.0 | 0.00 | 0.00 | 0.00 | 79 | 1006.2 |
| 20260831022046 | 79 | 147 | 5.0 | 17.0 | 0.00 | 0.00 | 0.00 | 79 | 1006.2 |
| 20260831021324 | 79 | 152 | 5.0 | 17.0 | 0.00 | 0.00 | 0.00 | 79 | 1006.1 |
| 20260831020824 | 79 | 135 | 6.0 | 19.0 | 0.00 | 0.00 | 0.00 | 79 | 1006.1 |
| 20260831020319 | 79 | 180 | 5.0 | 19.0 | 0.00 | 0.00 | 0.00 | 80 | 1005.9 |
| 20260831015818 | 79 | 177 | 3.0 | 12.0 | 0.00 | 0.00 | 0.00 | 82 | 1005.9 |
| 20260831015542 | 78 | 107 | 3.0 | 10.0 | 0.00 | 0.00 | 0.00 | 84 | 1005.8 |